Total_Precipitation_Accumulation
0.57 0.46 0.56 0.63 0.58 0.62 0.84 0.87 0.78 0.44 0.34 0.34 0.35 0.37 0.36 0.35 0.32 0.27 0.30 0.34 0.39 0.46 0.50 0.60 0.74 0.92 1.14 1.18 1.06 1.06 1.15 1.30 1.44 1.49 1.44 1.42 1.54 1.70 1.79 1.82 1.82 1.82 1.84 1.77
0.55 0.38 0.44 0.49 0.43 0.45 0.52 0.49 0.47 0.34 0.37 0.34 0.33 0.35 0.38 0.39 0.36 0.32 0.33 0.37 0.41 0.46 0.48 0.56 0.74 0.93 1.11 1.22 1.23 1.20 1.30 1.37 1.47 1.59 1.57 1.53 1.56 1.70 1.84 1.90 1.94 1.92 1.85 1.81
0.84 0.46 0.71 0.76 0.46 0.44 0.46 0.43 0.43 0.45 0.40 0.33 0.33 0.38 0.44 0.45 0.43 0.43 0.40 0.40 0.43 0.48 0.51 0.59 0.79 0.97 1.09 1.17 1.27 1.34 1.42 1.43 1.42 1.50 1.56 1.54 1.51 1.61 1.77 1.83 1.83 1.84 1.81 1.75
1.25 0.93 1.32 0.69 0.34 0.34 0.38 0.42 0.46 0.47 0.41 0.38 0.38 0.41 0.44 0.46 0.47 0.46 0.45 0.46 0.48 0.51 0.54 0.59 0.74 0.87 0.94 1.07 1.17 1.28 1.38 1.43 1.43 1.43 1.48 1.56 1.55 1.50 1.55 1.61 1.68 1.68 1.62 1.57
1.71 1.25 0.74 0.33 0.28 0.38 0.44 0.52 0.51 0.47 0.41 0.36 0.33 0.32 0.38 0.40 0.40 0.44 0.46 0.49 0.49 0.50 0.57 0.62 0.69 0.78 0.83 0.93 1.07 1.15 1.22 1.30 1.36 1.35 1.36 1.41 1.48 1.42 1.37 1.39 1.44 1.48 1.47 1.42
1.90 1.41 0.73 0.44 0.29 0.30 0.40 0.61 0.49 0.43 0.42 0.40 0.41 0.58 0.54 0.44 0.38 0.37 0.39 0.42 0.45 0.45 0.51 0.61 0.71 0.75 0.79 0.86 0.94 1.07 1.10 1.10 1.13 1.18 1.23 1.22 1.21 1.23 1.19 1.23 1.28 1.30 1.36 1.37
1.57 1.25 0.57 0.33 0.23 0.26 0.63 0.81 0.52 0.46 0.45 0.47 0.59 0.71 0.59 0.47 0.41 0.37 0.36 0.36 0.38 0.39 0.47 0.58 0.70 0.73 0.76 0.83 0.90 0.98 1.02 0.97 0.97 1.03 1.09 1.11 1.13 1.13 1.09 1.10 1.15 1.21 1.26 1.29
1.17 1.37 0.75 0.34 0.31 0.57 0.80 0.54 0.47 0.46 0.44 0.46 0.45 0.41 0.40 0.39 0.38 0.35 0.34 0.33 0.34 0.37 0.44 0.53 0.64 0.70 0.74 0.82 0.88 0.94 0.99 0.95 0.93 0.98 1.02 1.03 1.07 1.14 1.12 1.12 1.17 1.18 1.22 1.30
0.90 0.84 0.59 0.48 0.55 0.57 0.49 0.45 0.42 0.44 0.43 0.43 0.40 0.35 0.34 0.34 0.34 0.33 0.32 0.33 0.35 0.39 0.44 0.47 0.53 0.59 0.67 0.74 0.78 0.86 0.93 0.93 0.93 0.97 1.00 1.03 1.06 1.13 1.21 1.21 1.23 1.24 1.21 1.25
0.63 0.52 0.48 0.47 0.45 0.42 0.38 0.39 0.38 0.38 0.41 0.41 0.39 0.33 0.31 0.29 0.29 0.29 0.29 0.31 0.36 0.38 0.41 0.44 0.45 0.51 0.58 0.64 0.70 0.79 0.87 0.90 0.91 0.95 1.00 1.05 1.07 1.11 1.20 1.28 1.33 1.35 1.29 1.24
0.50 0.38 0.36 0.39 0.39 0.37 0.32 0.28 0.27 0.26 0.27 0.31 0.31 0.30 0.29 0.29 0.29 0.31 0.32 0.32 0.32 0.35 0.39 0.42 0.42 0.47 0.50 0.54 0.61 0.72 0.76 0.81 0.89 0.93 0.96 1.01 1.02 1.06 1.13 1.16 1.34 1.58 1.47 1.41
0.48 0.35 0.35 0.34 0.30 0.27 0.27 0.25 0.25 0.25 0.22 0.22 0.24 0.27 0.27 0.28 0.30 0.32 0.33 0.32 0.30 0.30 0.31 0.34 0.36 0.42 0.47 0.48 0.52 0.61 0.69 0.73 0.81 0.89 0.95 0.97 0.98 1.06 1.13 1.12 1.17 1.20 1.23 1.33
0.31 0.25 0.23 0.23 0.19 0.19 0.21 0.22 0.22 0.21 0.21 0.20 0.21 0.23 0.24 0.26 0.27 0.28 0.28 0.29 0.29 0.29 0.28 0.29 0.31 0.36 0.44 0.47 0.48 0.54 0.64 0.72 0.78 0.82 0.88 0.95 0.96 1.01 1.06 1.08 1.08 1.06 1.08 1.14
0.19 0.20 0.22 0.19 0.18 0.18 0.19 0.20 0.19 0.18 0.18 0.18 0.19 0.20 0.21 0.22 0.23 0.23 0.25 0.27 0.26 0.24 0.24 0.25 0.27 0.32 0.39 0.44 0.46 0.50 0.58 0.69 0.75 0.79 0.85 0.91 0.96 1.01 1.04 1.08 1.08 1.05 1.07 1.14
0.17 0.19 0.21 0.19 0.17 0.17 0.17 0.17 0.17 0.17 0.15 0.14 0.15 0.16 0.19 0.20 0.22 0.24 0.24 0.23 0.20 0.20 0.21 0.22 0.24 0.29 0.34 0.38 0.43 0.47 0.55 0.65 0.74 0.79 0.83 0.88 0.91 0.97 1.02 1.02 1.00 0.97 0.99 1.11
0.18 0.17 0.17 0.17 0.17 0.16 0.16 0.17 0.18 0.17 0.15 0.14 0.15 0.17 0.19 0.20 0.21 0.22 0.20 0.19 0.18 0.18 0.20 0.22 0.24 0.28 0.31 0.35 0.40 0.46 0.53 0.68 0.79 0.83 0.85 0.88 0.90 0.94 0.99 1.00 0.96 0.94 0.99 1.06
0.21 0.19 0.16 0.15 0.14 0.15 0.16 0.17 0.18 0.18 0.16 0.15 0.17 0.19 0.21 0.21 0.21 0.22 0.21 0.20 0.18 0.18 0.20 0.22 0.26 0.27 0.28 0.32 0.40 0.45 0.52 0.63 0.75 0.80 0.83 0.86 0.93 0.97 1.00 1.03 1.03 1.00 0.99 1.03
0.23 0.23 0.21 0.20 0.19 0.19 0.18 0.16 0.17 0.18 0.17 0.17 0.19 0.22 0.23 0.24 0.23 0.23 0.23 0.22 0.20 0.19 0.21 0.22 0.26 0.28 0.29 0.32 0.39 0.44 0.51 0.60 0.70 0.80 0.84 0.88 0.97 1.00 1.01 1.03 1.02 1.02 0.97 0.97
0.18 0.19 0.19 0.20 0.21 0.22 0.20 0.17 0.16 0.18 0.18 0.19 0.21 0.24 0.25 0.26 0.26 0.26 0.25 0.23 0.22 0.22 0.23 0.24 0.30 0.29 0.29 0.34 0.45 0.50 0.57 0.64 0.70 0.74 0.78 0.89 0.94 0.92 0.96 0.99 1.01 1.00 0.97 0.97
0.19 0.19 0.19 0.21 0.22 0.23 0.22 0.19 0.18 0.19 0.20 0.21 0.23 0.25 0.26 0.27 0.27 0.28 0.27 0.26 0.26 0.27 0.26 0.29 0.30 0.30 0.33 0.40 0.54 0.61 0.64 0.68 0.74 0.76 0.78 0.85 0.92 0.93 0.95 0.98 1.00 0.99 0.97 0.98
0.21 0.21 0.22 0.22 0.21 0.21 0.21 0.21 0.21 0.21 0.21 0.22 0.25 0.28 0.29 0.30 0.29 0.29 0.29 0.29 0.29 0.29 0.29 0.30 0.31 0.38 0.47 0.59 0.66 0.65 0.66 0.73 0.79 0.84 0.87 0.89 0.93 0.95 0.97 0.99 1.01 1.03 1.04 1.04
0.24 0.23 0.24 0.24 0.22 0.21 0.20 0.20 0.21 0.22 0.22 0.23 0.25 0.28 0.30 0.31 0.30 0.30 0.29 0.30 0.31 0.35 0.35 0.32 0.37 0.51 0.63 0.71 0.66 0.65 0.68 0.74 0.81 0.87 0.92 0.94 1.00 1.03 1.01 1.01 1.06 1.07 1.08 1.09
0.27 0.27 0.26 0.26 0.24 0.23 0.21 0.20 0.21 0.23 0.25 0.26 0.28 0.30 0.31 0.33 0.33 0.34 0.36 0.32 0.33 0.39 0.40 0.41 0.51 0.63 0.71 0.70 0.63 0.64 0.71 0.77 0.85 0.93 0.98 1.01 1.04 1.08 1.10 1.10 1.11 1.12 1.12 1.12
0.29 0.27 0.27 0.26 0.26 0.24 0.24 0.23 0.23 0.24 0.25 0.25 0.27 0.30 0.34 0.36 0.34 0.33 0.37 0.40 0.42 0.46 0.47 0.53 0.61 0.67 0.71 0.68 0.66 0.69 0.77 0.86 0.95 1.02 1.06 1.08 1.08 1.11 1.15 1.18 1.19 1.15 1.14 1.14
0.33 0.31 0.29 0.29 0.30 0.30 0.29 0.28 0.26 0.26 0.26 0.26 0.27 0.30 0.34 0.38 0.41 0.40 0.41 0.46 0.50 0.53 0.54 0.58 0.62 0.66 0.66 0.67 0.72 0.80 0.88 0.97 1.10 1.18 1.18 1.15 1.12 1.14 1.17 1.20 1.23 1.21 1.19 1.17
0.38 0.38 0.36 0.36 0.38 0.37 0.36 0.34 0.33 0.31 0.32 0.33 0.33 0.35 0.37 0.41 0.44 0.45 0.47 0.51 0.55 0.57 0.58 0.60 0.64 0.69 0.73 0.77 0.82 0.87 0.92 0.96 1.03 1.09 1.11 1.13 1.12 1.14 1.17 1.22 1.22 1.22 1.22 1.19
0.40 0.39 0.37 0.36 0.38 0.39 0.40 0.40 0.42 0.42 0.42 0.44 0.47 0.46 0.47 0.49 0.51 0.52 0.53 0.57 0.60 0.62 0.63 0.67 0.71 0.75 0.80 0.86 0.90 0.92 0.95 0.97 1.01 1.10 1.14 1.15 1.15 1.18 1.21 1.23 1.24 1.23 1.21 1.19